When you browse on this site, cookies collect data to enhance your experience and personalize the content and advertising you see.
Visit our Privacy Policy to learn more. By continuing to use the site, you agree to this use of cookies and data.

Stündliche Wetter Lunin

Heute, 12 Juli, Sonntag

Zeit Temperatur Niederschläge Wind Luftdruck Luftfeuchtigkeit
00:00 +15°C° 0 mm 5 m/S 751 mmHg 79%
01:00 +15°C° 0 mm 5 m/S 751 mmHg 78%
02:00 +14°C° 0 mm 4 m/S 751 mmHg 76%
03:00 +14°C° 0 mm 5 m/S 751 mmHg 77%
04:00 +14°C° 0 mm 5 m/S 751 mmHg 78%
05:00 +13°C° 0 mm 5 m/S 751 mmHg 78%
06:00 +13°C° 0.3 mm 5 m/S 751 mmHg 83%
07:00 +12°C° 0.3 mm 5 m/S 751 mmHg 87%
08:00 +10°C° 0.3 mm 5 m/S 752 mmHg 91%
09:00 +10°C° 1.8 mm 5 m/S 752 mmHg 92%
10:00 +9°C° 1.8 mm 5 m/S 752 mmHg 94%
11:00 +10°C° 1.8 mm 4 m/S 752 mmHg 95%
12:00 +10°C° 1.1 mm 4 m/S 752 mmHg 95%
13:00 +11°C° 1.1 mm 4 m/S 753 mmHg 95%
14:00 +11°C° 1.1 mm 3 m/S 753 mmHg 94%
15:00 +12°C° 0.5 mm 3 m/S 753 mmHg 91%
16:00 +13°C° 0.5 mm 3 m/S 752 mmHg 88%
17:00 +14°C° 0.5 mm 3 m/S 752 mmHg 84%
18:00 +15°C° 0 mm 2 m/S 752 mmHg 86%
19:00 +14°C° 0 mm 1 m/S 752 mmHg 87%
20:00 +13°C° 0 mm 1 m/S 752 mmHg 88%
21:00 +13°C° 0 mm 1 m/S 752 mmHg 90%
22:00 +12°C° 0 mm 2 m/S 752 mmHg 92%
23:00 +10°C° 0 mm 2 m/S 752 mmHg 93%

Morgen, 13 Juli, Montag

Zeit Temperatur Niederschläge Wind Luftdruck Luftfeuchtigkeit
00:00 +10°C° 0 mm 2 m/S 752 mmHg 94%
01:00 +10°C° 0 mm 2 m/S 752 mmHg 95%
02:00 +10°C° 0 mm 3 m/S 752 mmHg 96%
03:00 +9°C° 0 mm 3 m/S 752 mmHg 96%
04:00 +9°C° 0 mm 3 m/S 752 mmHg 95%
05:00 +9°C° 0 mm 3 m/S 751 mmHg 95%
06:00 +10°C° 0 mm 4 m/S 751 mmHg 89%
07:00 +12°C° 0 mm 4 m/S 752 mmHg 82%
08:00 +13°C° 0 mm 4 m/S 752 mmHg 76%
09:00 +15°C° 0 mm 4 m/S 751 mmHg 71%
10:00 +17°C° 0 mm 4 m/S 751 mmHg 66%
11:00 +18°C° 0 mm 4 m/S 751 mmHg 61%
12:00 +18°C° 0 mm 4 m/S 751 mmHg 60%
13:00 +19°C° 0 mm 4 m/S 751 mmHg 59%
14:00 +20°C° 0 mm 4 m/S 751 mmHg 58%
15:00 +20°C° 0.1 mm 4 m/S 750 mmHg 60%
16:00 +19°C° 0.1 mm 4 m/S 750 mmHg 62%
17:00 +19°C° 0.1 mm 4 m/S 750 mmHg 65%
18:00 +18°C° 0 mm 3 m/S 750 mmHg 71%
19:00 +17°C° 0 mm 3 m/S 749 mmHg 78%
20:00 +15°C° 0 mm 2 m/S 749 mmHg 84%
21:00 +14°C° 0 mm 2 m/S 749 mmHg 88%
22:00 +14°C° 0 mm 2 m/S 749 mmHg 91%
23:00 +12°C° 0 mm 3 m/S 749 mmHg 94%

übermorgen, 14 Juli, Dienstag

Zeit Temperatur Niederschläge Wind Luftdruck Luftfeuchtigkeit
00:00 +12°C° 0 mm 2 m/S 750 mmHg 95%
01:00 +12°C° 0 mm 2 m/S 750 mmHg 95%
02:00 +12°C° 0 mm 2 m/S 750 mmHg 96%
03:00 +10°C° 0 mm 2 m/S 750 mmHg 96%
04:00 +10°C° 0 mm 2 m/S 750 mmHg 97%
05:00 +10°C° 0 mm 2 m/S 749 mmHg 97%
06:00 +13°C° 0 mm 2 m/S 750 mmHg 92%
07:00 +13°C° 0 mm 3 m/S 750 mmHg 87%
08:00 +16°C° 0 mm 3 m/S 750 mmHg 83%
09:00 +18°C° 0.1 mm 3 m/S 750 mmHg 77%
10:00 +19°C° 0.1 mm 3 m/S 750 mmHg 72%
11:00 +20°C° 0.1 mm 3 m/S 749 mmHg 67%
12:00 +20°C° 0.3 mm 3 m/S 749 mmHg 70%
13:00 +20°C° 0.3 mm 3 m/S 749 mmHg 72%
14:00 +20°C° 0.3 mm 4 m/S 749 mmHg 75%
15:00 +20°C° 0.2 mm 3 m/S 749 mmHg 75%
16:00 +20°C° 0.2 mm 3 m/S 748 mmHg 75%
17:00 +20°C° 0.2 mm 3 m/S 748 mmHg 75%
18:00 +19°C° 0.1 mm 2 m/S 748 mmHg 78%
19:00 +18°C° 0.1 mm 2 m/S 748 mmHg 82%
20:00 +17°C° 0.1 mm 2 m/S 749 mmHg 85%
21:00 +16°C° 0 mm 2 m/S 749 mmHg 88%
22:00 +15°C° 0 mm 2 m/S 749 mmHg 90%
23:00 +14°C° 0 mm 2 m/S 749 mmHg 92%

15 Juli, Mittwoch

Zeit Temperatur Niederschläge Wind Luftdruck Luftfeuchtigkeit
00:00 +13°C° 0 mm 2 m/S 749 mmHg 93%
01:00 +13°C° 0 mm 2 m/S 749 mmHg 93%
02:00 +13°C° 0 mm 2 m/S 749 mmHg 94%
03:00 +12°C° 0 mm 2 m/S 749 mmHg 94%
04:00 +12°C° 0 mm 2 m/S 749 mmHg 95%
05:00 +12°C° 0 mm 2 m/S 749 mmHg 95%
06:00 +14°C° 0 mm 2 m/S 749 mmHg 88%
07:00 +16°C° 0 mm 2 m/S 749 mmHg 82%
08:00 +19°C° 0 mm 1 m/S 749 mmHg 75%
09:00 +20°C° 0 mm 1 m/S 749 mmHg 68%
10:00 +22°C° 0 mm 1 m/S 749 mmHg 62%
11:00 +23°C° 0 mm 1 m/S 749 mmHg 55%
12:00 +23°C° 0 mm 1 m/S 749 mmHg 55%
13:00 +24°C° 0 mm 1 m/S 748 mmHg 54%
14:00 +24°C° 0 mm 1 m/S 748 mmHg 53%
15:00 +24°C° 0.1 mm 1 m/S 748 mmHg 56%
16:00 +24°C° 0.1 mm 1 m/S 748 mmHg 60%
17:00 +23°C° 0.1 mm 1 m/S 748 mmHg 63%
18:00 +22°C° 0.1 mm 1 m/S 748 mmHg 69%
19:00 +20°C° 0.1 mm 1 m/S 748 mmHg 75%
20:00 +19°C° 0.1 mm 1 m/S 748 mmHg 81%
21:00 +18°C° 0 mm 1 m/S 748 mmHg 83%
22:00 +16°C° 0 mm 1 m/S 748 mmHg 85%
23:00 +14°C° 0 mm 0 m/S 748 mmHg 87%

16 Juli, Donnerstag

Zeit Temperatur Niederschläge Wind Luftdruck Luftfeuchtigkeit
00:00 +14°C° 0 mm 0 m/S 747 mmHg 88%
01:00 +13°C° 0 mm 0 m/S 747 mmHg 88%
02:00 +13°C° 0 mm 0 m/S 747 mmHg 89%
03:00 +14°C° 0 mm 1 m/S 747 mmHg 89%
04:00 +14°C° 0 mm 1 m/S 747 mmHg 89%
05:00 +14°C° 0 mm 1 m/S 746 mmHg 89%
06:00 +16°C° 0 mm 1 m/S 746 mmHg 85%
07:00 +18°C° 0 mm 1 m/S 746 mmHg 81%
08:00 +20°C° 0 mm 1 m/S 746 mmHg 77%
09:00 +21°C° 0.1 mm 1 m/S 746 mmHg 72%
10:00 +23°C° 0.1 mm 2 m/S 746 mmHg 68%
11:00 +24°C° 0.1 mm 2 m/S 745 mmHg 63%
12:00 +24°C° 0.6 mm 2 m/S 745 mmHg 63%
13:00 +25°C° 0.6 mm 2 m/S 745 mmHg 63%
14:00 +25°C° 0.6 mm 2 m/S 745 mmHg 62%
15:00 +24°C° 0.6 mm 2 m/S 744 mmHg 67%
16:00 +24°C° 0.6 mm 1 m/S 744 mmHg 72%
17:00 +23°C° 0.6 mm 1 m/S 744 mmHg 77%
18:00 +20°C° 0.6 mm 2 m/S 744 mmHg 81%
19:00 +19°C° 0.6 mm 2 m/S 744 mmHg 86%
20:00 +17°C° 0.6 mm 3 m/S 744 mmHg 91%
21:00 +17°C° 0.2 mm 2 m/S 744 mmHg 93%
22:00 +17°C° 0.2 mm 2 m/S 744 mmHg 94%
23:00 +16°C° 0.2 mm 2 m/S 744 mmHg 96%

17 Juli, Freitag

Zeit Temperatur Niederschläge Wind Luftdruck Luftfeuchtigkeit
00:00 +16°C° 0.2 mm 1 m/S 744 mmHg 96%
01:00 +16°C° 0.2 mm 1 m/S 744 mmHg 97%
02:00 +16°C° 0.2 mm 1 m/S 743 mmHg 97%
03:00 +16°C° 1.4 mm 1 m/S 743 mmHg 98%
04:00 +16°C° 1.4 mm 1 m/S 743 mmHg 98%
05:00 +16°C° 1.4 mm 1 m/S 743 mmHg 99%
06:00 +16°C° 1.5 mm 2 m/S 743 mmHg 98%
07:00 +15°C° 1.5 mm 2 m/S 743 mmHg 97%
08:00 +14°C° 1.5 mm 3 m/S 743 mmHg 97%
09:00 +16°C° 0.4 mm 3 m/S 743 mmHg 95%
10:00 +16°C° 0.4 mm 2 m/S 743 mmHg 94%
11:00 +16°C° 0.4 mm 2 m/S 744 mmHg 92%
12:00 +17°C° 0.4 mm 2 m/S 744 mmHg 90%
13:00 +18°C° 0.4 mm 1 m/S 744 mmHg 88%
14:00 +19°C° 0.4 mm 1 m/S 744 mmHg 86%
15:00 +19°C° 1 mm 1 m/S 743 mmHg 87%
16:00 +19°C° 1 mm 1 m/S 743 mmHg 88%
17:00 +19°C° 1 mm 1 m/S 743 mmHg 89%
18:00 +18°C° 0.9 mm 1 m/S 743 mmHg 91%
19:00 +16°C° 0.9 mm 2 m/S 743 mmHg 93%
20:00 +16°C° 0.9 mm 2 m/S 743 mmHg 96%
21:00 +15°C° 1.7 mm 2 m/S 743 mmHg 97%
22:00 +14°C° 1.7 mm 3 m/S 743 mmHg 97%
23:00 +14°C° 1.7 mm 3 m/S 744 mmHg 98%
Mehr zeigen